When you browse on this site, cookies collect data to enhance your experience and personalize the content and advertising you see.
Visit our Privacy Policy to learn more. By continuing to use the site, you agree to this use of cookies and data.
  • En España
  • Lista de países
  • Para 7 días
  • Temperatura del agua
  • El tiempo en el mapa
  • Informadores
  • user-avatar
    Iniciar sesión

    Tiempo cada hora Safaga

    Hoy, 24 Febrero, Lunes

    Tiempo Temperatura Precipitaciones Viento Presión Humedad
    00:00 +10°C° 0 mm 1 mps 703 mmHg 52%
    01:00 +10°C° 0 mm 1 mps 703 mmHg 52%
    02:00 +9°C° 0 mm 1 mps 702 mmHg 50%
    03:00 +9°C° 0 mm 1 mps 702 mmHg 51%
    04:00 +9°C° 0 mm 1 mps 702 mmHg 52%
    05:00 +8°C° 0 mm 1 mps 702 mmHg 53%
    06:00 +10°C° 0 mm 1 mps 702 mmHg 48%
    07:00 +11°C° 0 mm 1 mps 703 mmHg 44%
    08:00 +13°C° 0 mm 2 mps 703 mmHg 40%
    09:00 +14°C° 0 mm 2 mps 704 mmHg 36%
    10:00 +16°C° 0 mm 3 mps 704 mmHg 32%
    11:00 +17°C° 0 mm 4 mps 704 mmHg 28%
    12:00 +16°C° 0 mm 5 mps 704 mmHg 27%
    13:00 +17°C° 0 mm 6 mps 703 mmHg 26%
    14:00 +17°C° 0 mm 7 mps 702 mmHg 27%
    15:00 +16°C° 0 mm 7 mps 702 mmHg 30%
    16:00 +15°C° 0 mm 8 mps 702 mmHg 33%
    17:00 +13°C° 0 mm 8 mps 702 mmHg 36%
    18:00 +11°C° 0 mm 7 mps 703 mmHg 43%
    19:00 +9°C° 0 mm 6 mps 703 mmHg 49%
    20:00 +8°C° 0 mm 5 mps 703 mmHg 55%
    21:00 +7°C° 0 mm 5 mps 703 mmHg 61%
    22:00 +6°C° 0 mm 5 mps 703 mmHg 68%
    23:00 +5°C° 0 mm 5 mps 703 mmHg 74%

    Mañana, 25 Febrero, Martes

    Tiempo Temperatura Precipitaciones Viento Presión Humedad
    00:00 +5°C° 0 mm 5 mps 703 mmHg 78%
    01:00 +4°C° 0 mm 4 mps 703 mmHg 82%
    02:00 +3°C° 0 mm 3 mps 702 mmHg 86%
    03:00 +3°C° 0 mm 4 mps 702 mmHg 87%
    04:00 +3°C° 0 mm 4 mps 703 mmHg 88%
    05:00 +3°C° 0 mm 4 mps 703 mmHg 89%
    06:00 +3°C° 0 mm 5 mps 704 mmHg 82%
    07:00 +4°C° 0 mm 6 mps 704 mmHg 75%
    08:00 +6°C° 0 mm 7 mps 705 mmHg 68%
    09:00 +9°C° 0 mm 7 mps 706 mmHg 58%
    10:00 +12°C° 0 mm 8 mps 706 mmHg 48%
    11:00 +15°C° 0 mm 8 mps 707 mmHg 38%
    12:00 +16°C° 0 mm 9 mps 706 mmHg 34%
    13:00 +17°C° 0 mm 9 mps 706 mmHg 31%
    14:00 +18°C° 0 mm 9 mps 706 mmHg 27%
    15:00 +17°C° 0 mm 9 mps 706 mmHg 31%
    16:00 +17°C° 0 mm 8 mps 706 mmHg 35%
    17:00 +16°C° 0 mm 8 mps 707 mmHg 39%
    18:00 +14°C° 0 mm 7 mps 707 mmHg 47%
    19:00 +12°C° 0 mm 5 mps 707 mmHg 55%
    20:00 +10°C° 0 mm 4 mps 707 mmHg 62%
    21:00 +9°C° 0 mm 3 mps 707 mmHg 67%
    22:00 +8°C° 0 mm 2 mps 707 mmHg 72%
    23:00 +7°C° 0 mm 2 mps 707 mmHg 76%

    Pasado mañana, 26 Febrero, Miércoles

    Tiempo Temperatura Precipitaciones Viento Presión Humedad
    00:00 +8°C° 0 mm 1 mps 706 mmHg 78%
    01:00 +7°C° 0 mm 1 mps 706 mmHg 79%
    02:00 +7°C° 0 mm 1 mps 706 mmHg 81%
    03:00 +6°C° 0 mm 1 mps 706 mmHg 81%
    04:00 +5°C° 0 mm 0 mps 706 mmHg 82%
    05:00 +5°C° 0 mm 0 mps 706 mmHg 82%
    06:00 +7°C° 0 mm 0 mps 707 mmHg 72%
    07:00 +11°C° 0 mm 1 mps 707 mmHg 62%
    08:00 +13°C° 0 mm 1 mps 708 mmHg 52%
    09:00 +15°C° 0 mm 1 mps 709 mmHg 45%
    10:00 +18°C° 0 mm 1 mps 709 mmHg 37%
    11:00 +20°C° 0 mm 1 mps 709 mmHg 30%
    12:00 +20°C° 0 mm 2 mps 709 mmHg 29%
    13:00 +21°C° 0 mm 2 mps 708 mmHg 27%
    14:00 +22°C° 0 mm 3 mps 708 mmHg 26%
    15:00 +21°C° 0 mm 3 mps 708 mmHg 33%
    16:00 +19°C° 0 mm 4 mps 707 mmHg 40%
    17:00 +18°C° 0 mm 4 mps 707 mmHg 47%
    18:00 +16°C° 0 mm 3 mps 707 mmHg 58%
    19:00 +14°C° 0 mm 2 mps 707 mmHg 69%
    20:00 +12°C° 0 mm 2 mps 707 mmHg 80%
    21:00 +10°C° 0 mm 2 mps 707 mmHg 79%
    22:00 +10°C° 0 mm 2 mps 707 mmHg 78%
    23:00 +11°C° 0 mm 1 mps 707 mmHg 77%

    27 Febrero, Jueves

    Tiempo Temperatura Precipitaciones Viento Presión Humedad
    00:00 +11°C° 0 mm 1 mps 707 mmHg 72%
    01:00 +10°C° 0 mm 2 mps 706 mmHg 68%
    02:00 +9°C° 0 mm 2 mps 706 mmHg 64%
    03:00 +10°C° 0 mm 1 mps 706 mmHg 63%
    04:00 +9°C° 0 mm 1 mps 706 mmHg 63%
    05:00 +9°C° 0 mm 1 mps 705 mmHg 62%
    06:00 +11°C° 0 mm 1 mps 706 mmHg 52%
    07:00 +14°C° 0 mm 1 mps 707 mmHg 41%
    08:00 +17°C° 0 mm 2 mps 708 mmHg 31%
    09:00 +19°C° 0 mm 2 mps 708 mmHg 26%
    10:00 +21°C° 0 mm 3 mps 708 mmHg 22%
    11:00 +24°C° 0 mm 3 mps 708 mmHg 17%
    12:00 +24°C° 0 mm 3 mps 708 mmHg 17%
    13:00 +25°C° 0 mm 3 mps 707 mmHg 16%
    14:00 +26°C° 0 mm 2 mps 707 mmHg 15%
    15:00 +25°C° 0 mm 3 mps 706 mmHg 20%
    16:00 +23°C° 0 mm 4 mps 706 mmHg 24%
    17:00 +22°C° 0 mm 4 mps 706 mmHg 28%
    18:00 +19°C° 0 mm 3 mps 705 mmHg 35%
    19:00 +17°C° 0 mm 3 mps 705 mmHg 41%
    20:00 +15°C° 0 mm 2 mps 705 mmHg 48%
    21:00 +14°C° 0 mm 2 mps 705 mmHg 46%
    22:00 +14°C° 0 mm 2 mps 705 mmHg 45%
    23:00 +14°C° 0 mm 1 mps 705 mmHg 43%

    28 Febrero, Viernes

    Tiempo Temperatura Precipitaciones Viento Presión Humedad
    00:00 +13°C° 0 mm 1 mps 704 mmHg 41%
    01:00 +13°C° 0 mm 1 mps 704 mmHg 40%
    02:00 +13°C° 0 mm 1 mps 704 mmHg 39%
    03:00 +12°C° 0 mm 1 mps 704 mmHg 39%
    04:00 +12°C° 0 mm 1 mps 703 mmHg 39%
    05:00 +12°C° 0 mm 1 mps 703 mmHg 40%
    06:00 +14°C° 0 mm 1 mps 704 mmHg 33%
    07:00 +18°C° 0 mm 1 mps 705 mmHg 26%
    08:00 +19°C° 0 mm 0 mps 705 mmHg 19%
    09:00 +22°C° 0 mm 1 mps 705 mmHg 17%
    10:00 +24°C° 0 mm 1 mps 706 mmHg 14%
    11:00 +26°C° 0 mm 1 mps 706 mmHg 12%
    12:00 +27°C° 0 mm 2 mps 705 mmHg 11%
    13:00 +28°C° 0 mm 3 mps 705 mmHg 11%
    14:00 +29°C° 0 mm 4 mps 704 mmHg 10%
    15:00 +28°C° 0 mm 4 mps 704 mmHg 13%
    16:00 +27°C° 0 mm 4 mps 704 mmHg 16%
    17:00 +25°C° 0 mm 5 mps 703 mmHg 19%
    18:00 +21°C° 0 mm 4 mps 703 mmHg 25%
    19:00 +19°C° 0 mm 2 mps 703 mmHg 31%
    20:00 +16°C° 0 mm 1 mps 703 mmHg 37%
    21:00 +15°C° 0 mm 1 mps 703 mmHg 37%
    22:00 +15°C° 0 mm 1 mps 703 mmHg 36%
    23:00 +15°C° 0 mm 1 mps 703 mmHg 35%

    29 Febrero, Sábado

    Tiempo Temperatura Precipitaciones Viento Presión Humedad
    00:00 +14°C° 0 mm 2 mps 703 mmHg 36%
    01:00 +14°C° 0 mm 2 mps 703 mmHg 37%
    02:00 +13°C° 0 mm 2 mps 703 mmHg 38%
    03:00 +13°C° 0 mm 2 mps 703 mmHg 39%
    04:00 +13°C° 0 mm 2 mps 703 mmHg 39%
    05:00 +13°C° 0 mm 2 mps 703 mmHg 40%
    06:00 +14°C° 0 mm 3 mps 703 mmHg 35%
    07:00 +17°C° 0 mm 4 mps 704 mmHg 30%
    08:00 +19°C° 0 mm 5 mps 705 mmHg 25%
    09:00 +21°C° 0 mm 5 mps 705 mmHg 21%
    10:00 +22°C° 0 mm 5 mps 706 mmHg 17%
    11:00 +25°C° 0 mm 5 mps 706 mmHg 13%
    12:00 +26°C° 0 mm 6 mps 706 mmHg 12%
    13:00 +27°C° 0 mm 6 mps 705 mmHg 12%
    14:00 +27°C° 0 mm 7 mps 705 mmHg 11%
    15:00 +26°C° 0 mm 6 mps 705 mmHg 12%
    16:00 +24°C° 0 mm 6 mps 705 mmHg 13%
    17:00 +23°C° 0 mm 5 mps 705 mmHg 13%
    18:00 +20°C° 0 mm 4 mps 704 mmHg 18%
    19:00 +16°C° 0 mm 3 mps 704 mmHg 22%
    20:00 +13°C° 0 mm 2 mps 704 mmHg 27%
    21:00 +12°C° 0 mm 1 mps 704 mmHg 29%
    22:00 +11°C° 0 mm 1 mps 704 mmHg 32%
    23:00 +10°C° 0 mm 1 mps 704 mmHg 35%
    Mostrar más